Regional Weather Roundup
Issued by NWS New Orleans/Baton Rouge, LA

Home | Current Version | Previous Version | Text Only | Print | Product List | Glossary On
Versions: 1 2 3 4 5 6 7 8 9 10 11 12 13 14 15 16 17 18 19 20 21 22 23 24 25 26 27 28 29 30 31 32 33 34 35 36 37 38 39 40 41 42 43 44 45 46 47 48 49 50
000
ASUS44 KLIX 260811
RWRLIX
NEW ORLEANS REGIONAL WEATHER ROUNDUP
NATIONAL WEATHER SERVICE NEW ORLEANS LA
300 AM CDT MON SEP 26 2016

NOTE: "FAIR" INDICATES FEW OR NO CLOUDS BELOW 12,000 FEET WITH NO
      SIGNIFICANT WEATHER AND/OR OBSTRUCTIONS TO VISIBILITY.
      SKY/WX - SKY CONDITION AND SIGNIFICANT WEATHER.
      TMP - AIR TEMPERATURE.     DP    - DEWPOINT TEMPERATURE.
      RH  - RELATIVE HUMIDITY.   PRES  - PRESSURE.
      HI  - HEAT INDEX.          WCI   - WIND CHILL INDEX.

*  THESE STATIONS ARE NOT NWS OR FAA STATIONS AND ARE NOT UNDER
   NWS QUALITY CONTROL.

LAZ038-040-048-061>063-065>067-069-260900-
SOUTHEAST LOUISIANA

CITY           SKY/WX    TMP DP  RH WIND       PRES   REMARKS
N.O. AUDUBON   NOT AVBL
N.O. INTL ARPT PTCLDY    79  73  82 W3        30.00S
N.O. LAKEFRONT CLEAR     83  72  69 NW10      30.00S
N.O. DOWNTOWN*   N/A     80  72  76 CALM      30.01S
RESERVE*         N/A     75  73  93 CALM      30.01S
SLIDELL        PTCLDY    74  72  93 CALM      29.99S
BATON ROUGE    LGT RAIN  73  71  93 CALM      30.01R
BOOTHVILLE     CLEAR     80  75  84 CALM      29.99F
BELLE CHASSE   CLEAR     74  72  93 NW3       29.99F
BOGALUSA*        N/A     71  68  89 CALM      30.02S
GALLIANO*      NOT AVBL
NEW ROADS*       N/A     71  70  96 MISG      30.01F
GONZALES*        N/A     73  72  97 CALM      30.00S
HAMMOND*       PTCLDY    72  70  94 CALM      30.00S
HOUMA*         CLEAR     71  71  98 CALM      30.00S
PORT FOURCHON* SUNNY     81  73  78 CALM      30.00S

$$

MSZ070-080>082-260900-
SOUTHERN MISSISSIPPI

CITY           SKY/WX    TMP DP  RH WIND       PRES   REMARKS
MCCOMB         PTCLDY    71  67  87 CALM      30.01F
GULFPORT       CLEAR     74  72  93 N3        29.98F
BILOXI         CLEAR     75  71  87 NE5       29.98F
PASCAGOULA     CLEAR     70  70 100 CALM      29.98F

$$

COASTAL OBSERVATIONS
LAKE AND NEARSHORE STATIONS

STATION/POSITION TIME  TEMP    WIND        PRES    WAVE
                       AIR SEA DIR/SP/G            HT/PER
                 (UTC) (F)     (DEG/KT/KT) (MB)    (FT/S)
PASCAGOULA       0700   77      20/  5/  7 1015.1
WAVELAND YACHT   0700   79 86   50/  3/  4 1015.7
GRAND ISLE       0700   82 89  210/  1/  2 1016.0
SOUTHWEST PASS   0700          350/  3/  3   N/A
NEW CANAL        0700   82 86  260/  4/  6 1015.1
SHELL BEACH      0700   80 87  270/  7/  9 1015.8

OFFSHORE STATIONS

STATION/POSITION TIME  TEMP    WIND        PRES    WAVE
                       AIR SEA DIR/SP/G            HT/PER
                 (UTC) (F)     (DEG/KT/KT) (MB)    (FT/S)
64 S DAUPHIN ISL 0700   83 86  260/  2/  2 1015.1

$$




USA.gov is the U.S. government's official web portal to all federal, state and local government web resources and services.